Huntington, WV

4:00 PM EST on November 23, 2017 (GMT -0500)
Tri-State / Ferguson

Weather History for KHTS - October, 2013

Change the Weather History Date:

Thursday, October 3, 2013

  Actual Average Record
Temperature  
Mean Temperature 74 °F 61 °F  
Max Temperature 84 °F 72 °F 92 °F (1919)
Min Temperature 64 °F 49 °F 27 °F (1974)
Degree Days  
Heating Degree Days 0 6  
Month to date heating degree days 0 16  
Since 1 July heating degree days 38 74  
Cooling Degree Days 9 1  
Month to date cooling degree days 21 5  
Year to date cooling degree days 1186 1116  
Growing Degree Days 24 (Base 50)    
Moisture  
Dew Point 65 °F    
Average Humidity 78    
Maximum Humidity 93    
Minimum Humidity 62    
Precipitation  
Precipitation 0.25 in 0.08 in 1.42 in (1893)
Month to date precipitation 0.25 0.25  
Year to date precipitation 34.39 33.28  
Snow  
Snow 0.00 in 0.00 in 0.00 in (2016)
Month to date snowfall 0.0 0.0  
Since 1 September snowfall 0.0 0.0  
Snow Depth 0.00 in    
Sea Level Pressure  
Sea Level Pressure 30.07 in    
Wind  
Wind Speed 2 mph (SSW)    
Max Wind Speed 16 mph    
Max Gust Speed 23 mph    
Visibility 8 miles    
Events Rain , Thunderstorm    
T = Trace of Precipitation, MM = Missing Value Source: NWS Daily Summary

Daily Weather History Graph

Daily Weather History Graph

Search for Another Location

Airport or City:

Trip Planner

Search our weather history database for the weather conditions in past years. The results will help you decide how hot, cold, wet, or windy it might be!

Date:

Astronomy

Oct. 03, 2013 Rise Set
Actual Time 7:28 AM EDT 7:09 PM EDT
Civil Twilight 7:01 AM EDT 7:36 PM EDT
Nautical Twilight 6:30 AM EDT 8:06 PM EDT
Astronomical Twilight 6:00 AM EDT 8:37 PM EDT
Moon 6:00 AM EDT (10/3) 6:17 PM EDT (10/3)
Length of Visible Light 12h 34m
Length of Day
11h 41m
Waning Crescent, 2% of the Moon is Illuminated
Oct 3
Waning Crescent
Oct 4
New
Oct 11
First Quarter
Oct 18
Full
Oct 26
Last Quarter

Hourly Weather History & Observations

Time (EDT) Temp. Heat Index Dew Point Humidity Pressure Visibility Wind Dir Wind Speed Gust Speed Precip Events Conditions
12:51 AM 66.9 °F - 64.0 °F 90% 30.08 in 8.0 mi SSW 3.5 mph - N/A   Overcast
1:51 AM 66.0 °F - 64.0 °F 93% 30.07 in 8.0 mi Calm Calm - N/A   Clear
2:51 AM 66.0 °F - 63.0 °F 90% 30.07 in 9.0 mi Calm Calm - N/A   Clear
3:51 AM 66.0 °F - 63.0 °F 90% 30.06 in 9.0 mi South 3.5 mph - N/A   Mostly Cloudy
4:51 AM 66.0 °F - 63.0 °F 90% 30.06 in 10.0 mi SSW 3.5 mph - N/A   Mostly Cloudy
5:51 AM 66.0 °F - 63.0 °F 90% 30.07 in 9.0 mi Calm Calm - N/A   Scattered Clouds
6:51 AM 64.9 °F - 63.0 °F 93% 30.08 in 7.0 mi Calm Calm - N/A   Mostly Cloudy
7:51 AM 64.0 °F - 63.0 °F 96% 30.09 in 5.0 mi SSW 4.6 mph - N/A   Clear
8:51 AM 66.9 °F - 64.0 °F 90% 30.10 in 6.0 mi SSW 3.5 mph - N/A   Clear
9:51 AM 70.0 °F - 64.9 °F 84% 30.11 in 10.0 mi Calm Calm - N/A   Partly Cloudy
10:51 AM 72.0 °F - 66.0 °F 81% 30.12 in 10.0 mi Calm Calm - N/A   Mostly Cloudy
11:51 AM 75.9 °F - 68.0 °F 76% 30.10 in 10.0 mi Calm Calm - N/A   Clear
12:51 PM 80.1 °F 82.1 °F 66.0 °F 62% 30.08 in 10.0 mi Variable 4.6 mph - N/A   Scattered Clouds
1:51 PM 79.0 °F - 66.0 °F 64% 30.05 in 10.0 mi SW 3.5 mph - N/A   Clear
2:51 PM 72.0 °F - 66.9 °F 84% 30.06 in 2.0 mi WNW 9.2 mph 19.6 mph 0.00 in Rain Light Rain
2:53 PM 71.6 °F - 66.2 °F 83% 30.08 in 1.2 mi NW 13.8 mph 20.7 mph 0.00 in Rain , Thunderstorm Heavy Thunderstorms and Rain
3:01 PM 69.8 °F - 66.2 °F 88% 30.07 in 0.8 mi Variable 3.5 mph 23.0 mph 0.20 in Rain , Thunderstorm Heavy Thunderstorms and Rain
3:08 PM 69.8 °F - 66.2 °F 88% 30.09 in 3.0 mi South 4.6 mph - 0.22 in Rain , Thunderstorm Light Thunderstorms and Rain
3:40 PM 71.6 °F - 66.2 °F 83% 30.07 in 10.0 mi Calm Calm - 0.25 in   Scattered Clouds
3:51 PM 72.0 °F - 66.9 °F 84% 30.05 in 10.0 mi Calm Calm - 0.25 in   Scattered Clouds
4:51 PM 73.9 °F - 69.1 °F 85% 30.04 in 10.0 mi SW 5.8 mph - N/A   Partly Cloudy
5:51 PM 73.0 °F - 68.0 °F 84% 30.06 in 10.0 mi SSW 5.8 mph - 0.00 in Rain Light Rain
6:51 PM 72.0 °F - 68.0 °F 87% 30.05 in 10.0 mi SW 4.6 mph - 0.00 in   Clear
7:51 PM 70.0 °F - 66.9 °F 90% 30.04 in 10.0 mi Calm Calm - N/A   Clear
8:51 PM 69.1 °F - 66.0 °F 90% 30.06 in 10.0 mi South 3.5 mph - N/A   Clear
9:51 PM 66.9 °F - 64.9 °F 93% 30.06 in 7.0 mi Calm Calm - N/A   Clear
10:51 PM 66.9 °F - 64.9 °F 93% 30.08 in 7.0 mi Calm Calm - N/A   Clear
11:04 PM 66.2 °F - 64.4 °F 94% 30.09 in 1.2 mi Calm Calm - N/A   Partly Cloudy
11:11 PM 64.4 °F - 64.4 °F 100% 30.09 in 8.0 mi Calm Calm - N/A   Clear
11:51 PM 66.0 °F - 64.9 °F 96% 30.08 in 8.0 mi Calm Calm - N/A   Clear